| time (UTC) | temp F | wind direction | speed knots | gust knots | rain 1hr in | rain 24hr in | rain mn in | humidity % | barometer mb |
| 20260507192536 | 64 | 0 | 0.0 | 2.6 | 0.01 | 0.01 | 0.01 | 35 | 1004.5 |
| 20260507192036 | 64 | 0 | 0.0 | 3.5 | 0.01 | 0.01 | 0.01 | 37 | 1004.5 |
| 20260507191544 | 64 | 295 | 0.0 | 3.5 | 0.01 | 0.01 | 0.01 | 36 | 1004.6 |
| 20260507191036 | 64 | 37 | 0.0 | 1.7 | 0.01 | 0.01 | 0.01 | 38 | 1004.6 |
| 20260507190537 | 64 | 288 | 0.0 | 4.3 | 0.01 | 0.01 | 0.01 | 37 | 1004.6 |
| 20260507190048 | 64 | 6 | 0.9 | 4.3 | 0.01 | 0.01 | 0.01 | 39 | 1004.5 |
| 20260507185537 | 65 | 0 | 0.0 | 2.6 | 0.01 | 0.01 | 0.01 | 38 | 1004.7 |
| 20260507185037 | 65 | 281 | 0.0 | 2.6 | 0.01 | 0.01 | 0.01 | 38 | 1004.8 |
| 20260507184603 | 66 | 295 | 0.0 | 0.9 | 0.00 | 0.00 | 0.00 | 37 | 1004.9 |
| 20260507184037 | 66 | 269 | 0.0 | 1.7 | 0.00 | 0.00 | 0.00 | 35 | 1004.9 |
| 20260507183540 | 66 | 339 | 0.0 | 2.6 | 0.00 | 0.00 | 0.00 | 40 | 1004.9 |
| 20260507183050 | 66 | 0 | 0.9 | 2.6 | 0.00 | 0.00 | 0.00 | 36 | 1005.0 |
| 20260507182537 | 65 | 300 | 0.9 | 1.7 | 0.00 | 0.00 | 0.00 | 39 | 1005.1 |
| 20260507182037 | 65 | 342 | 0.0 | 0.9 | 0.00 | 0.00 | 0.00 | 40 | 1005.1 |
| 20260507181548 | 66 | 278 | 0.0 | 2.6 | 0.00 | 0.00 | 0.00 | 42 | 1005.1 |
| 20260507181037 | 67 | 315 | 0.0 | 5.2 | 0.00 | 0.00 | 0.00 | 42 | 1005.2 |
| 20260507180538 | 66 | 0 | 0.9 | 5.2 | 0.00 | 0.00 | 0.00 | 41 | 1005.2 |
| 20260507180049 | 66 | 216 | 0.9 | 5.2 | 0.00 | 0.00 | 0.00 | 42 | 1005.2 |
| 20260507175534 | 65 | 227 | 0.9 | 4.3 | 0.00 | 0.00 | 0.00 | 44 | 1005.2 |
| 20260507175034 | 64 | 309 | 0.0 | 0.9 | 0.00 | 0.00 | 0.00 | 45 | 1005.2 |
| 20260507174550 | 64 | 0 | 0.0 | 2.6 | 0.00 | 0.00 | 0.00 | 48 | 1005.2 |
| 20260507174038 | 64 | 300 | 0.0 | 2.6 | 0.00 | 0.00 | 0.00 | 47 | 1005.2 |
| 20260507173538 | 65 | 288 | 0.0 | 1.7 | 0.00 | 0.00 | 0.00 | 48 | 1005.2 |
| 20260507173044 | 65 | 284 | 0.0 | 3.5 | 0.00 | 0.00 | 0.00 | 44 | 1005.2 |
| 20260507172539 | 65 | 0 | 0.0 | 3.5 | 0.00 | 0.00 | 0.00 | 48 | 1005.3 |
| 20260507172038 | 65 | 251 | 0.9 | 4.3 | 0.00 | 0.00 | 0.00 | 47 | 1005.3 |
| 20260507171552 | 65 | 288 | 0.9 | 4.3 | 0.00 | 0.00 | 0.00 | 49 | 1005.3 |
| 20260507171037 | 65 | 265 | 0.9 | 5.2 | 0.00 | 0.00 | 0.00 | 49 | 1005.5 |
| 20260507170534 | 64 | 219 | 0.9 | 5.2 | 0.00 | 0.00 | 0.00 | 51 | 1005.5 |
| 20260507170052 | 62 | 282 | 0.0 | 1.7 | 0.00 | 0.00 | 0.00 | 56 | 1005.6 |
| 20260507165537 | 62 | 283 | 0.9 | 1.7 | 0.00 | 0.00 | 0.00 | 53 | 1005.7 |
| 20260507165035 | 63 | 253 | 0.0 | 0.9 | 0.00 | 0.00 | 0.00 | 52 | 1005.6 |
| 20260507164547 | 63 | 0 | 0.0 | 1.7 | 0.00 | 0.00 | 0.00 | 54 | 1005.6 |
| 20260507164038 | 63 | 0 | 0.0 | 1.7 | 0.00 | 0.00 | 0.00 | 51 | 1005.7 |
| 20260507163537 | 63 | 249 | 0.0 | 0.9 | 0.00 | 0.00 | 0.00 | 52 | 1005.7 |
| 20260507163047 | 63 | 281 | 0.0 | 0.9 | 0.00 | 0.00 | 0.00 | 52 | 1005.8 |
| 20260507162538 | 63 | 210 | 0.0 | 1.7 | 0.00 | 0.00 | 0.00 | 53 | 1005.8 |
| 20260507162038 | 63 | 354 | 0.0 | 4.3 | 0.00 | 0.00 | 0.00 | 54 | 1005.9 |
| 20260507161550 | 63 | 281 | 0.0 | 4.3 | 0.00 | 0.00 | 0.00 | 51 | 1005.8 |
| 20260507161037 | 64 | 220 | 0.9 | 4.3 | 0.00 | 0.00 | 0.00 | 46 | 1006.0 |
| 20260507160537 | 63 | 245 | 0.9 | 3.5 | 0.00 | 0.00 | 0.00 | 52 | 1006.2 |
| 20260507160048 | 62 | 259 | 0.9 | 3.5 | 0.00 | 0.00 | 0.00 | 51 | 1006.2 |
| 20260507155538 | 62 | 262 | 0.0 | 2.6 | 0.00 | 0.00 | 0.00 | 53 | 1006.5 |
| 20260507155037 | 62 | 223 | 0.9 | 1.7 | 0.00 | 0.00 | 0.00 | 48 | 1006.6 |
| 20260507154559 | 63 | 230 | 0.0 | 2.6 | 0.00 | 0.00 | 0.00 | 50 | 1006.6 |
| 20260507154037 | 61 | 233 | 0.0 | 2.6 | 0.00 | 0.00 | 0.00 | 55 | 1006.8 |
| 20260507153537 | 61 | 291 | 0.9 | 2.6 | 0.00 | 0.00 | 0.00 | 57 | 1006.7 |
| 20260507153050 | 62 | 282 | 0.9 | 2.6 | 0.00 | 0.00 | 0.00 | 56 | 1006.8 |
| 20260507152538 | 63 | 274 | 0.9 | 2.6 | 0.00 | 0.00 | 0.00 | 52 | 1006.8 |
| 20260507152038 | 62 | 205 | 0.0 | 1.7 | 0.00 | 0.00 | 0.00 | 56 | 1006.8 |
| 20260507151547 | 62 | 0 | 0.0 | 1.7 | 0.00 | 0.00 | 0.00 | 55 | 1006.9 |
| 20260507151037 | 62 | 347 | 0.0 | 2.6 | 0.00 | 0.00 | 0.00 | 57 | 1006.9 |
| 20260507150538 | 61 | 277 | 0.9 | 2.6 | 0.00 | 0.00 | 0.00 | 53 | 1007.0 |
| 20260507150057 | 61 | 115 | 0.0 | 2.6 | 0.00 | 0.00 | 0.00 | 60 | 1007.0 |
| 20260507145538 | 61 | 30 | 0.9 | 2.6 | 0.00 | 0.00 | 0.00 | 59 | 1007.1 |
| 20260507145037 | 61 | 32 | 0.9 | 2.6 | 0.00 | 0.00 | 0.00 | 59 | 1007.0 |
| 20260507144548 | 60 | 296 | 0.0 | 2.6 | 0.00 | 0.00 | 0.00 | 64 | 1007.0 |
| 20260507144039 | 60 | 287 | 0.0 | 0.9 | 0.00 | 0.00 | 0.00 | 61 | 1007.0 |
| 20260507143537 | 60 | 1 | 0.0 | 0.9 | 0.00 | 0.00 | 0.00 | 62 | 1007.1 |
| 20260507143107 | 59 | 1 | 0.0 | 0.9 | 0.00 | 0.00 | 0.00 | 66 | 1007.1 |
| 20260507142537 | 58 | 1 | 0.0 | 2.6 | 0.00 | 0.00 | 0.00 | 70 | 1007.2 |
| 20260507142037 | 57 | 0 | 0.0 | 2.6 | 0.00 | 0.00 | 0.00 | 67 | 1007.2 |
| 20260507141552 | 58 | 266 | 0.0 | 2.6 | 0.00 | 0.00 | 0.00 | 68 | 1007.3 |
| 20260507141037 | 58 | 276 | 0.0 | 2.6 | 0.00 | 0.00 | 0.00 | 76 | 1007.2 |
| 20260507140537 | 57 | 0 | 0.0 | 2.6 | 0.00 | 0.00 | 0.00 | 77 | 1007.3 |
| 20260507140048 | 57 | 294 | 0.0 | 2.6 | 0.00 | 0.00 | 0.00 | 80 | 1007.2 |
| 20260507135541 | 56 | 252 | 0.0 | 1.7 | 0.00 | 0.00 | 0.00 | 80 | 1007.2 |
| 20260507135037 | 55 | 13 | 0.0 | 0.9 | 0.00 | 0.00 | 0.00 | 80 | 1007.2 |
| 20260507134549 | 55 | 0 | 0.0 | 3.5 | 0.00 | 0.00 | 0.00 | 83 | 1007.2 |
| 20260507134037 | 54 | 288 | 0.0 | 3.5 | 0.00 | 0.00 | 0.00 | 87 | 1007.5 |
| 20260507133537 | 54 | 288 | 0.0 | 3.5 | 0.00 | 0.00 | 0.00 | 86 | 1007.4 |
| 20260507133057 | 54 | 0 | 0.0 | 0.9 | 0.00 | 0.00 | 0.00 | 90 | 1007.2 |
| 20260507132536 | 53 | 0 | 0.0 | 2.6 | 0.00 | 0.00 | 0.00 | 92 | 1007.2 |
| 20260507132037 | 53 | 0 | 0.0 | 2.6 | 0.00 | 0.00 | 0.00 | 92 | 1007.3 |
| 20260507131608 | 52 | 281 | 0.0 | 1.7 | 0.00 | 0.00 | 0.00 | 93 | 1007.5 |
| 20260507131038 | 52 | 278 | 0.0 | 2.6 | 0.00 | 0.00 | 0.00 | 94 | 1007.4 |
| 20260507130537 | 51 | 0 | 0.0 | 2.6 | 0.00 | 0.00 | 0.00 | 95 | 1007.3 |
| 20260507130051 | 50 | 0 | 0.0 | 2.6 | 0.00 | 0.00 | 0.00 | 94 | 1007.3 |
| 20260507125537 | 50 | 277 | 0.0 | 0.9 | 0.00 | 0.00 | 0.00 | 94 | 1007.5 |
| 20260507125037 | 50 | 0 | 0.0 | 0.9 | 0.00 | 0.00 | 0.00 | 94 | 1007.3 |
| 20260507124546 | 49 | 277 | 0.0 | 0.9 | 0.00 | 0.00 | 0.00 | 95 | 1007.4 |
| 20260507124037 | 49 | 0 | 0.0 | 0.9 | 0.00 | 0.00 | 0.00 | 94 | 1007.6 |
| 20260507123537 | 49 | 277 | 0.0 | 0.9 | 0.00 | 0.00 | 0.00 | 94 | 1007.8 |
| 20260507123045 | 49 | 0 | 0.0 | 0.9 | 0.00 | 0.00 | 0.00 | 95 | 1007.8 |
| 20260507122537 | 49 | 269 | 0.0 | 0.9 | 0.00 | 0.00 | 0.00 | 95 | 1007.8 |
| 20260507122038 | 49 | 0 | 0.0 | 0.9 | 0.00 | 0.00 | 0.00 | 95 | 1007.6 |
| 20260507121548 | 49 | 0 | 0.0 | 0.9 | 0.00 | 0.00 | 0.00 | 95 | 1007.5 |
| 20260507121038 | 49 | 0 | 0.0 | 0.0 | 0.00 | 0.00 | 0.00 | 95 | 1007.4 |
| 20260507120537 | 48 | 269 | 0.0 | 0.9 | 0.00 | 0.00 | 0.00 | 95 | 1007.2 |
| 20260507120043 | 48 | 0 | 0.0 | 0.9 | 0.00 | 0.00 | 0.00 | 95 | 1007.2 |
| 20260507115538 | 48 | 0 | 0.0 | 0.9 | 0.00 | 0.00 | 0.00 | 94 | 1007.4 |
| 20260507115037 | 48 | 270 | 0.0 | 0.9 | 0.00 | 0.00 | 0.00 | 94 | 1007.2 |
| 20260507114547 | 48 | 0 | 0.0 | 0.9 | 0.00 | 0.00 | 0.00 | 94 | 1007.2 |
| 20260507114037 | 48 | 0 | 0.0 | 0.9 | 0.00 | 0.00 | 0.00 | 94 | 1007.5 |
| 20260507113538 | 48 | 0 | 0.0 | 0.9 | 0.00 | 0.00 | 0.00 | 95 | 1007.5 |
| 20260507113048 | 49 | 0 | 0.0 | 0.0 | 0.00 | 0.00 | 0.00 | 95 | 1007.1 |
| 20260507112537 | 48 | 0 | 0.0 | 0.9 | 0.00 | 0.00 | 0.00 | 95 | 1007.1 |
| 20260507112037 | 48 | 0 | 0.0 | 0.9 | 0.00 | 0.00 | 0.00 | 95 | 1006.9 |
| 20260507111544 | 49 | 0 | 0.0 | 0.9 | 0.00 | 0.00 | 0.00 | 95 | 1007.3 |
| 20260507111037 | 48 | 0 | 0.0 | 0.9 | 0.00 | 0.00 | 0.00 | 95 | 1007.5 |
| 20260507110536 | 49 | 0 | 0.0 | 0.9 | 0.00 | 0.00 | 0.00 | 95 | 1007.6 |
| 20260507110045 | 49 | 280 | 0.0 | 0.9 | 0.00 | 0.00 | 0.00 | 94 | 1007.1 |
| 20260507105536 | 49 | 0 | 0.0 | 0.9 | 0.00 | 0.00 | 0.00 | 95 | 1006.7 |
| 20260507105038 | 49 | 0 | 0.0 | 0.9 | 0.00 | 0.00 | 0.00 | 94 | 1006.7 |
| 20260507104543 | 49 | 280 | 0.0 | 0.9 | 0.00 | 0.00 | 0.00 | 94 | 1006.9 |
| 20260507104038 | 49 | 280 | 0.0 | 1.7 | 0.00 | 0.00 | 0.00 | 94 | 1006.9 |
| 20260507103538 | 49 | 0 | 0.0 | 1.7 | 0.00 | 0.00 | 0.00 | 94 | 1007.1 |
| 20260507103045 | 49 | 278 | 0.0 | 1.7 | 0.00 | 0.00 | 0.00 | 94 | 1007.1 |
| 20260507102538 | 49 | 0 | 0.0 | 0.9 | 0.00 | 0.00 | 0.00 | 94 | 1007.0 |
| 20260507102038 | 49 | 296 | 0.0 | 1.7 | 0.00 | 0.00 | 0.00 | 94 | 1007.4 |
| 20260507101547 | 49 | 283 | 0.9 | 1.7 | 0.00 | 0.00 | 0.00 | 94 | 1007.1 |
| 20260507101038 | 49 | 0 | 0.0 | 1.7 | 0.00 | 0.00 | 0.00 | 94 | 1006.9 |
| 20260507100537 | 49 | 0 | 0.0 | 0.9 | 0.00 | 0.00 | 0.00 | 94 | 1007.0 |
| 20260507100049 | 49 | 277 | 0.0 | 0.9 | 0.00 | 0.00 | 0.00 | 94 | 1006.8 |
| 20260507095537 | 49 | 0 | 0.0 | 0.9 | 0.00 | 0.00 | 0.00 | 94 | 1006.9 |
| 20260507095037 | 50 | 276 | 0.0 | 0.9 | 0.00 | 0.00 | 0.00 | 94 | 1006.7 |
| 20260507094546 | 50 | 0 | 0.0 | 0.9 | 0.00 | 0.00 | 0.00 | 94 | 1006.6 |
| 20260507094038 | 50 | 0 | 0.0 | 0.9 | 0.00 | 0.00 | 0.00 | 94 | 1006.7 |
| 20260507093537 | 50 | 0 | 0.0 | 0.9 | 0.00 | 0.00 | 0.00 | 93 | 1006.7 |
| 20260507093055 | 50 | 279 | 0.0 | 0.9 | 0.00 | 0.00 | 0.00 | 94 | 1006.4 |
| 20260507092538 | 51 | 279 | 0.0 | 0.9 | 0.00 | 0.00 | 0.00 | 93 | 1006.7 |
| 20260507092037 | 51 | 0 | 0.0 | 2.6 | 0.00 | 0.00 | 0.00 | 94 | 1007.0 |
| 20260507091548 | 51 | 276 | 0.9 | 2.6 | 0.00 | 0.00 | 0.00 | 93 | 1006.6 |
| 20260507091038 | 51 | 274 | 1.7 | 2.6 | 0.00 | 0.00 | 0.00 | 93 | 1006.5 |
| 20260507090538 | 52 | 274 | 0.0 | 1.7 | 0.00 | 0.00 | 0.00 | 94 | 1006.1 |
| 20260507090047 | 52 | 0 | 0.0 | 1.7 | 0.00 | 0.00 | 0.00 | 94 | 1005.9 |
| 20260507085537 | 52 | 279 | 0.0 | 0.9 | 0.00 | 0.00 | 0.00 | 94 | 1006.0 |
| 20260507085039 | 53 | 278 | 0.0 | 0.9 | 0.00 | 0.00 | 0.00 | 94 | 1005.7 |
| 20260507084550 | 53 | 278 | 0.0 | 0.9 | 0.00 | 0.00 | 0.00 | 94 | 1005.7 |
| 20260507084037 | 53 | 278 | 0.0 | 0.9 | 0.00 | 0.00 | 0.00 | 94 | 1006.0 |
| 20260507083537 | 53 | 0 | 0.0 | 0.9 | 0.00 | 0.00 | 0.00 | 94 | 1005.5 |
| 20260507083049 | 53 | 0 | 0.0 | 1.7 | 0.00 | 0.00 | 0.00 | 94 | 1005.9 |
| 20260507082537 | 53 | 278 | 0.0 | 1.7 | 0.00 | 0.00 | 0.00 | 94 | 1006.1 |
| 20260507082039 | 54 | 276 | 0.0 | 1.7 | 0.00 | 0.00 | 0.00 | 94 | 1005.8 |
| 20260507081546 | 54 | 285 | 0.0 | 1.7 | 0.00 | 0.00 | 0.00 | 94 | 1005.9 |
| 20260507081038 | 54 | 288 | 0.9 | 2.6 | 0.00 | 0.00 | 0.00 | 94 | 1006.1 |
| 20260507080537 | 55 | 278 | 0.9 | 2.6 | 0.00 | 0.00 | 0.00 | 94 | 1005.9 |
| 20260507080046 | 55 | 277 | 0.0 | 2.6 | 0.00 | 0.00 | 0.00 | 94 | 1005.8 |
| 20260507075538 | 56 | 0 | 0.0 | 2.6 | 0.00 | 0.00 | 0.00 | 95 | 1005.6 |
| 20260507075037 | 56 | 304 | 0.0 | 0.9 | 0.00 | 0.00 | 0.00 | 95 | 1005.6 |
| 20260507074551 | 56 | 232 | 0.0 | 0.9 | 0.00 | 0.00 | 0.00 | 95 | 1005.3 |
| 20260507074037 | 56 | 0 | 0.0 | 0.9 | 0.00 | 0.00 | 0.00 | 95 | 1005.1 |
| 20260507073537 | 55 | 0 | 0.0 | 0.0 | 0.00 | 0.00 | 0.00 | 95 | 1004.7 |
| 20260507073048 | 55 | 0 | 0.0 | 0.0 | 0.00 | 0.00 | 0.00 | 95 | 1004.9 |
| 20260507072538 | 55 | 0 | 0.0 | 0.0 | 0.00 | 0.00 | 0.00 | 95 | 1004.8 |
| 20260507072037 | 55 | 0 | 0.0 | 0.0 | 0.00 | 0.00 | 0.00 | 95 | 1004.9 |
| 20260507071606 | 55 | 0 | 0.0 | 0.0 | 0.00 | 0.00 | 0.00 | 95 | 1005.1 |
| 20260507071038 | 55 | 0 | 0.0 | 0.0 | 0.00 | 0.00 | 0.00 | 95 | 1005.2 |
| 20260507070537 | 55 | 0 | 0.0 | 0.0 | 0.00 | 0.00 | 0.00 | 94 | 1005.1 |
| 20260507070045 | 55 | 0 | 0.0 | 0.0 | 0.00 | 0.00 | 0.00 | 94 | 1005.1 |
| 20260507065537 | 55 | 0 | 0.0 | 0.0 | 0.00 | 0.00 | 0.00 | 94 | 1005.1 |
| 20260507065037 | 56 | 0 | 0.0 | 0.0 | 0.00 | 0.00 | 0.00 | 94 | 1005.1 |
| 20260507064542 | 56 | 0 | 0.0 | 0.0 | 0.00 | 0.00 | 0.00 | 94 | 1005.1 |
| 20260507064037 | 56 | 0 | 0.0 | 0.0 | 0.00 | 0.00 | 0.00 | 94 | 1004.9 |
| 20260507063538 | 56 | 0 | 0.0 | 0.0 | 0.00 | 0.00 | 0.00 | 94 | 1005.0 |
| 20260507063048 | 56 | 0 | 0.0 | 0.0 | 0.00 | 0.00 | 0.00 | 94 | 1004.9 |
| 20260507062538 | 56 | 0 | 0.0 | 0.0 | 0.00 | 0.00 | 0.00 | 94 | 1005.0 |
| 20260507062038 | 56 | 0 | 0.0 | 0.0 | 0.00 | 0.00 | 0.00 | 94 | 1005.3 |
| 20260507061545 | 56 | 0 | 0.0 | 0.9 | 0.00 | 0.00 | 0.00 | 94 | 1005.3 |
| 20260507061038 | 56 | 0 | 0.0 | 0.9 | 0.00 | 0.00 | 0.00 | 94 | 1005.5 |
| 20260507060538 | 56 | 0 | 0.0 | 0.9 | 0.00 | 0.00 | 0.00 | 94 | 1005.6 |
| 20260507060049 | 56 | 0 | 0.0 | 0.9 | 0.00 | 0.00 | 0.00 | 94 | 1005.5 |
| 20260507055538 | 56 | 231 | 0.0 | 0.9 | 0.00 | 0.00 | 0.00 | 94 | 1005.6 |
| 20260507055037 | 56 | 0 | 0.0 | 0.9 | 0.00 | 0.00 | 0.00 | 94 | 1005.7 |
| 20260507054545 | 56 | 0 | 0.0 | 0.9 | 0.00 | 0.00 | 0.00 | 94 | 1005.5 |
| 20260507054037 | 56 | 0 | 0.0 | 0.9 | 0.00 | 0.00 | 0.00 | 94 | 1005.6 |
| 20260507053538 | 56 | 0 | 0.0 | 3.5 | 0.00 | 0.00 | 0.00 | 94 | 1005.6 |
| 20260507053111 | 56 | 221 | 0.0 | 3.5 | 0.00 | 0.00 | 0.00 | 94 | 1005.6 |
| 20260507052538 | 56 | 240 | 0.0 | 1.7 | 0.00 | 0.00 | 0.00 | 94 | 1005.6 |
| 20260507052037 | 56 | 79 | 0.0 | 0.0 | 0.00 | 0.00 | 0.00 | 94 | 1005.7 |
| 20260507051552 | 56 | 0 | 0.0 | 2.6 | 0.00 | 0.00 | 0.00 | 94 | 1005.7 |
| 20260507051037 | 56 | 0 | 0.0 | 2.6 | 0.00 | 0.00 | 0.00 | 94 | 1005.8 |
| 20260507050538 | 56 | 101 | 0.9 | 1.7 | 0.00 | 0.00 | 0.00 | 94 | 1005.9 |
| 20260507050046 | 56 | 222 | 0.0 | 5.2 | 0.00 | 0.00 | 0.00 | 94 | 1006.1 |
| 20260507045539 | 56 | 0 | 0.0 | 5.2 | 0.00 | 0.00 | 0.00 | 94 | 1006.0 |
| 20260507045039 | 56 | 271 | 0.0 | 5.2 | 0.00 | 0.00 | 0.00 | 94 | 1006.0 |
| 20260507044546 | 56 | 0 | 0.0 | 0.9 | 0.00 | 0.00 | 0.00 | 94 | 1005.9 |
| 20260507044037 | 56 | 246 | 0.0 | 1.7 | 0.00 | 0.00 | 0.00 | 94 | 1005.9 |
| 20260507043537 | 56 | 0 | 0.0 | 1.7 | 0.00 | 0.00 | 0.00 | 94 | 1005.8 |
| 20260507043047 | 56 | 218 | 0.0 | 1.7 | 0.00 | 0.00 | 0.00 | 94 | 1006.0 |
| 20260507042537 | 56 | 184 | 0.0 | 1.7 | 0.00 | 0.00 | 0.00 | 94 | 1005.7 |
| 20260507042037 | 56 | 0 | 0.0 | 0.9 | 0.00 | 0.00 | 0.00 | 94 | 1005.8 |
| 20260507041549 | 56 | 0 | 0.0 | 1.7 | 0.00 | 0.00 | 0.00 | 94 | 1005.9 |
| 20260507041037 | 56 | 0 | 0.0 | 1.7 | 0.00 | 0.00 | 0.00 | 94 | 1005.8 |
| 20260507040538 | 56 | 0 | 0.0 | 1.7 | 0.00 | 0.00 | 0.00 | 94 | 1005.8 |
| 20260507040053 | 56 | 0 | 0.0 | 2.6 | 0.00 | 0.00 | 0.00 | 94 | 1006.0 |
| 20260507035538 | 56 | 60 | 0.0 | 2.6 | 0.00 | 0.00 | 0.00 | 94 | 1006.0 |
| 20260507035037 | 56 | 226 | 0.0 | 7.8 | 0.00 | 0.00 | 0.00 | 94 | 1006.1 |
| 20260507034550 | 56 | 266 | 0.0 | 7.8 | 0.00 | 0.00 | 0.00 | 94 | 1006.3 |
| 20260507034037 | 56 | 0 | 0.9 | 5.2 | 0.00 | 0.00 | 0.00 | 94 | 1006.4 |
| 20260507033538 | 56 | 324 | 0.9 | 5.2 | 0.00 | 0.00 | 0.00 | 94 | 1006.1 |
| 20260507033051 | 56 | 312 | 0.0 | 1.7 | 0.00 | 0.00 | 0.00 | 94 | 1006.1 |
| 20260507032539 | 56 | 0 | 0.0 | 5.2 | 0.00 | 0.00 | 0.00 | 94 | 1006.0 |
| 20260507032037 | 56 | 255 | 0.0 | 5.2 | 0.00 | 0.00 | 0.00 | 94 | 1006.1 |
| 20260507031553 | 56 | 284 | 1.7 | 5.2 | 0.00 | 0.00 | 0.00 | 94 | 1006.0 |
| 20260507031040 | 56 | 274 | 0.0 | 3.5 | 0.00 | 0.00 | 0.00 | 94 | 1005.8 |
| 20260507030537 | 56 | 233 | 0.9 | 2.6 | 0.00 | 0.00 | 0.00 | 94 | 1005.9 |
| 20260507030050 | 56 | 287 | 0.0 | 3.5 | 0.00 | 0.00 | 0.00 | 94 | 1005.9 |
| 20260507025537 | 56 | 323 | 0.0 | 3.5 | 0.00 | 0.00 | 0.00 | 94 | 1005.8 |
| 20260507025037 | 56 | 302 | 0.0 | 4.3 | 0.00 | 0.00 | 0.00 | 94 | 1005.7 |
| 20260507024544 | 56 | 237 | 0.9 | 4.3 | 0.00 | 0.00 | 0.00 | 94 | 1005.5 |
| 20260507024038 | 56 | 0 | 0.0 | 2.6 | 0.00 | 0.00 | 0.00 | 94 | 1005.4 |
| 20260507023537 | 56 | 0 | 0.0 | 2.6 | 0.00 | 0.00 | 0.00 | 94 | 1005.7 |
| 20260507023047 | 56 | 267 | 0.0 | 5.2 | 0.00 | 0.00 | 0.00 | 94 | 1005.7 |
| 20260507022537 | 56 | 0 | 0.0 | 5.2 | 0.00 | 0.00 | 0.00 | 94 | 1005.6 |
| 20260507022039 | 56 | 266 | 1.7 | 5.2 | 0.00 | 0.00 | 0.00 | 94 | 1005.7 |
| 20260507021545 | 56 | 268 | 0.0 | 3.5 | 0.00 | 0.00 | 0.00 | 94 | 1005.7 |
| 20260507021038 | 56 | 238 | 0.9 | 3.5 | 0.00 | 0.00 | 0.00 | 94 | 1006.0 |
| 20260507020538 | 56 | 238 | 0.0 | 2.6 | 0.00 | 0.00 | 0.00 | 94 | 1006.0 |
| 20260507020047 | 56 | 0 | 0.0 | 3.5 | 0.00 | 0.00 | 0.00 | 94 | 1006.3 |
| 20260507015537 | 56 | 283 | 0.0 | 3.5 | 0.00 | 0.00 | 0.00 | 94 | 1006.4 |
| 20260507015038 | 56 | 288 | 0.9 | 3.5 | 0.00 | 0.00 | 0.00 | 94 | 1006.2 |
| 20260507014601 | 56 | 218 | 0.9 | 3.5 | 0.00 | 0.00 | 0.00 | 94 | 1006.3 |
| 20260507014038 | 56 | 70 | 0.0 | 3.5 | 0.00 | 0.00 | 0.00 | 94 | 1006.5 |
| 20260507013538 | 56 | 240 | 0.9 | 3.5 | 0.00 | 0.00 | 0.00 | 94 | 1006.5 |
| 20260507013050 | 56 | 57 | 0.0 | 4.3 | 0.00 | 0.00 | 0.00 | 94 | 1006.4 |
| 20260507012537 | 56 | 233 | 0.9 | 4.3 | 0.00 | 0.00 | 0.00 | 94 | 1006.5 |
| 20260507012037 | 56 | 288 | 0.9 | 4.3 | 0.00 | 0.00 | 0.00 | 94 | 1006.5 |
| 20260507011545 | 56 | 218 | 0.9 | 4.3 | 0.00 | 0.00 | 0.00 | 94 | 1006.5 |
| 20260507011038 | 56 | 270 | 0.0 | 4.3 | 0.00 | 0.00 | 0.00 | 94 | 1006.6 |
| 20260507010537 | 56 | 224 | 0.9 | 4.3 | 0.00 | 0.00 | 0.00 | 94 | 1006.5 |
| 20260507010054 | 56 | 285 | 0.9 | 4.3 | 0.00 | 0.00 | 0.00 | 94 | 1006.5 |
| 20260507005535 | 56 | 235 | 0.0 | 4.3 | 0.00 | 0.00 | 0.00 | 93 | 1006.6 |
| 20260507005036 | 57 | 263 | 0.9 | 4.3 | 0.00 | 0.00 | 0.00 | 93 | 1006.6 |
| 20260507004559 | 56 | 235 | 0.9 | 5.2 | 0.00 | 0.00 | 0.00 | 93 | 1006.6 |
| 20260507004036 | 57 | 254 | 0.0 | 5.2 | 0.00 | 0.00 | 0.00 | 93 | 1006.6 |
| 20260507003538 | 57 | 193 | 1.7 | 5.2 | 0.00 | 0.00 | 0.00 | 93 | 1006.6 |
| 20260507003046 | 57 | 279 | 0.9 | 7.8 | 0.00 | 0.00 | 0.00 | 93 | 1006.7 |
| 20260507002538 | 57 | 221 | 0.9 | 7.8 | 0.00 | 0.00 | 0.00 | 93 | 1006.6 |
| 20260507002038 | 57 | 281 | 1.7 | 6.1 | 0.00 | 0.00 | 0.00 | 93 | 1006.6 |
| 20260507001551 | 57 | 217 | 0.9 | 6.1 | 0.00 | 0.00 | 0.00 | 94 | 1006.4 |
| 20260507001037 | 57 | 253 | 1.7 | 9.6 | 0.00 | 0.00 | 0.00 | 94 | 1006.4 |
| 20260507000538 | 57 | 29 | 1.7 | 9.6 | 0.00 | 0.00 | 0.00 | 94 | 1006.6 |
| 20260507000048 | 57 | 306 | 1.7 | 8.7 | 0.00 | 0.00 | 0.00 | 94 | 1006.5 |
| 20260506235539 | 57 | 0 | 0.9 | 10.4 | 0.00 | 0.00 | 0.00 | 94 | 1006.6 |
| 20260506235038 | 57 | 279 | 0.9 | 10.4 | 0.00 | 0.00 | 0.00 | 93 | 1006.4 |
| 20260506234545 | 57 | 280 | 1.7 | 7.8 | 0.00 | 0.00 | 0.00 | 93 | 1006.5 |
| 20260506234040 | 57 | 202 | 0.9 | 7.8 | 0.00 | 0.00 | 0.00 | 93 | 1006.5 |
| 20260506233540 | 57 | 56 | 0.0 | 5.2 | 0.00 | 0.00 | 0.00 | 93 | 1006.5 |
| 20260506233052 | 57 | 88 | 0.9 | 5.2 | 0.00 | 0.00 | 0.00 | 93 | 1006.5 |
| 20260506232537 | 57 | 289 | 1.7 | 5.2 | 0.00 | 0.00 | 0.00 | 92 | 1006.6 |
| 20260506232035 | 57 | 0 | 0.0 | 4.3 | 0.00 | 0.00 | 0.00 | 92 | 1006.7 |
| 20260506231546 | 57 | 99 | 0.0 | 4.3 | 0.00 | 0.00 | 0.00 | 92 | 1006.6 |
| 20260506231038 | 57 | 272 | 0.0 | 4.3 | 0.00 | 0.00 | 0.00 | 92 | 1006.5 |
| 20260506230537 | 58 | 127 | 0.0 | 1.7 | 0.00 | 0.00 | 0.00 | 91 | 1006.5 |
| 20260506230051 | 58 | 233 | 0.0 | 4.3 | 0.00 | 0.00 | 0.00 | 91 | 1006.5 |
| 20260506225541 | 58 | 216 | 0.0 | 4.3 | 0.00 | 0.00 | 0.00 | 91 | 1006.5 |
| 20260506225038 | 58 | 223 | 1.7 | 4.3 | 0.00 | 0.00 | 0.00 | 90 | 1006.6 |
| 20260506224549 | 58 | 213 | 0.9 | 4.3 | 0.00 | 0.00 | 0.00 | 90 | 1006.7 |
| 20260506224039 | 59 | 0 | 0.9 | 12.2 | 0.00 | 0.00 | 0.00 | 89 | 1006.6 |
| 20260506223537 | 59 | 291 | 0.9 | 12.2 | 0.00 | 0.00 | 0.00 | 89 | 1006.6 |
| 20260506223045 | 59 | 257 | 1.7 | 6.1 | 0.00 | 0.00 | 0.00 | 89 | 1007.0 |
| 20260506222538 | 59 | 251 | 1.7 | 6.1 | 0.00 | 0.00 | 0.00 | 89 | 1006.9 |
| 20260506222038 | 59 | 0 | 1.7 | 6.1 | 0.00 | 0.00 | 0.00 | 89 | 1006.9 |
| 20260506221545 | 59 | 243 | 1.7 | 6.1 | 0.00 | 0.00 | 0.00 | 89 | 1006.9 |
| 20260506221037 | 59 | 189 | 1.7 | 4.3 | 0.00 | 0.00 | 0.00 | 89 | 1007.0 |
| 20260506220537 | 59 | 210 | 1.7 | 4.3 | 0.00 | 0.00 | 0.00 | 89 | 1007.0 |
| 20260506220049 | 60 | 271 | 0.9 | 3.5 | 0.00 | 0.00 | 0.00 | 89 | 1007.0 |
| 20260506215537 | 60 | 226 | 0.0 | 6.1 | 0.00 | 0.00 | 0.00 | 89 | 1007.0 |
| 20260506215039 | 60 | 207 | 0.9 | 6.1 | 0.00 | 0.00 | 0.00 | 89 | 1007.0 |
| 20260506214600 | 60 | 140 | 1.7 | 6.1 | 0.00 | 0.00 | 0.00 | 88 | 1007.1 |
| 20260506214036 | 60 | 205 | 0.9 | 4.3 | 0.00 | 0.00 | 0.00 | 88 | 1006.9 |
| 20260506213541 | 60 | 0 | 0.0 | 2.6 | 0.00 | 0.00 | 0.00 | 87 | 1007.1 |
| 20260506213049 | 61 | 235 | 0.9 | 7.0 | 0.00 | 0.00 | 0.00 | 87 | 1007.1 |
| 20260506212538 | 61 | 264 | 0.9 | 7.0 | 0.00 | 0.00 | 0.00 | 86 | 1007.2 |
| 20260506212038 | 61 | 244 | 1.7 | 7.0 | 0.00 | 0.00 | 0.00 | 85 | 1007.2 |
| 20260506211603 | 61 | 84 | 0.9 | 6.1 | 0.00 | 0.00 | 0.00 | 85 | 1007.3 |
| 20260506211038 | 61 | 260 | 0.9 | 6.1 | 0.00 | 0.00 | 0.00 | 85 | 1007.3 |
| 20260506210537 | 61 | 280 | 1.7 | 6.1 | 0.00 | 0.00 | 0.00 | 85 | 1007.2 |
| 20260506210050 | 61 | 102 | 0.9 | 6.1 | 0.00 | 0.00 | 0.00 | 85 | 1007.3 |
| 20260506205534 | 60 | 280 | 0.9 | 5.2 | 0.00 | 0.00 | 0.00 | 85 | 1007.4 |
| 20260506205034 | 60 | 0 | 1.7 | 8.7 | 0.00 | 0.00 | 0.00 | 86 | 1007.4 |
| 20260506204549 | 60 | 0 | 0.9 | 8.7 | 0.00 | 0.00 | 0.00 | 86 | 1007.5 |
| 20260506204033 | 60 | 254 | 1.7 | 7.0 | 0.00 | 0.00 | 0.00 | 87 | 1007.4 |
| 20260506203534 | 60 | 153 | 0.9 | 6.1 | 0.00 | 0.00 | 0.00 | 87 | 1007.6 |
| 20260506203045 | 60 | 202 | 0.9 | 6.1 | 0.00 | 0.00 | 0.00 | 87 | 1007.5 |
| 20260506202536 | 60 | 83 | 1.7 | 9.6 | 0.00 | 0.00 | 0.00 | 87 | 1007.7 |
| 20260506202036 | 60 | 34 | 0.9 | 9.6 | 0.00 | 0.00 | 0.00 | 87 | 1007.7 |
| 20260506201548 | 60 | 251 | 1.7 | 9.6 | 0.00 | 0.00 | 0.00 | 86 | 1007.7 |
| 20260506201036 | 60 | 257 | 1.7 | 5.2 | 0.00 | 0.00 | 0.00 | 84 | 1007.9 |
| 20260506200535 | 61 | 237 | 0.9 | 5.2 | 0.00 | 0.00 | 0.00 | 83 | 1007.9 |
| 20260506200049 | 61 | 196 | 0.0 | 5.2 | 0.00 | 0.00 | 0.00 | 81 | 1007.9 |
| 20260506195536 | 62 | 289 | 0.9 | 7.8 | 0.00 | 0.00 | 0.00 | 78 | 1007.9 |
| 20260506195038 | 63 | 236 | 0.9 | 7.8 | 0.00 | 0.00 | 0.00 | 77 | 1007.9 |
| 20260506194544 | 63 | 246 | 1.7 | 7.8 | 0.00 | 0.00 | 0.00 | 75 | 1008.0 |
| 20260506194039 | 63 | 203 | 0.9 | 7.8 | 0.00 | 0.00 | 0.00 | 74 | 1007.9 |
| 20260506193536 | 63 | 243 | 2.6 | 7.8 | 0.00 | 0.00 | 0.00 | 74 | 1007.9 |
| 20260506193042 | 63 | 290 | 2.6 | 9.6 | 0.00 | 0.00 | 0.00 | 74 | 1008.0 |